H1 CPF 2 NER 2022 12 1 10 335 01 glonass132 H2 1401201 9132 39620 2022 12 1 0 0 0 2022 12 4 23 45 0 900 1 1 0 0 0 1 H9 10 0 59914 0.00000 0 -10117166.641 -2642032.611 -23245372.398 10 0 59914 900.00000 0 -9341827.260 -5403919.644 -23087764.718 10 0 59914 1800.00000 0 -8787938.005 -8171059.039 -22480621.391 10 0 59914 2700.00000 0 -8459845.200 -10871957.287 -21435609.392 10 0 59914 3600.00000 0 -8349160.719 -13436365.392 -19972954.515 10 0 59914 4500.00000 0 -8435228.433 -15798001.087 -18121055.364 10 0 59914 5400.00000 0 -8686126.288 -17897116.343 -15915934.083 10 0 59914 6300.00000 0 -9060161.639 -19682802.151 -13400533.996 10 0 59914 7200.00000 0 -9507796.159 -21114933.339 -10623877.794 10 0 59914 8100.00000 0 -9973917.907 -22165671.353 -7640102.989 10 0 59914 9000.00000 0 -10400363.013 -22820461.620 -4507394.155 10 0 59914 9900.00000 0 -10728578.496 -23078483.741 -1286834.068 10 0 59914 10800.00000 0 -10902311.569 -22952536.266 1958802.456 10 0 59914 11700.00000 0 -10870209.650 -22468362.187 5166286.836 10 0 59914 12600.00000 0 -10588219.380 -21663445.244 8273181.277 10 0 59914 13500.00000 0 -10021681.801 -20585329.852 11219063.882 10 0 59914 14400.00000 0 -9147034.290 -19289537.588 13946709.369 10 0 59914 15300.00000 0 -7953047.021 -17837170.065 16403201.672 10 0 59914 16200.00000 0 -6441541.939 -16292300.798 18540956.721 10 0 59914 17100.00000 0 -4627564.344 -14719266.878 20318636.011 10 0 59914 18000.00000 0 -2539000.547 -13179974.724 21701934.139 10 0 59914 18900.00000 0 -215658.145 -11731332.696 22664226.495 10 0 59914 19800.00000 0 2292152.221 -10422917.200 23187066.232 10 0 59914 20700.00000 0 4925474.301 -9294968.447 23260522.637 10 0 59914 21600.00000 0 7618925.864 -8376797.730 22883356.098 10 0 59914 22500.00000 0 10303189.011 -7685670.585 22063027.740 10 0 59914 23400.00000 0 12907668.858 -7226210.362 20815544.653 10 0 59914 24300.00000 0 15363211.822 -6990345.134 19165144.367 10 0 59914 25200.00000 0 17604772.521 -6957798.576 17143824.865 10 0 59914 26100.00000 0 19573920.398 -7097103.166 14790728.941 10 0 59914 27000.00000 0 21221083.809 -7367092.690 12151394.191 10 0 59914 27900.00000 0 22507439.947 -7718811.377 9276882.112 10 0 59914 28800.00000 0 23406373.122 -8097759.857 6222802.100 10 0 59914 29700.00000 0 23904441.610 -8446384.143 3048248.018 10 0 59914 30600.00000 0 24001813.130 -8706703.599 -185333.322 10 0 59914 31500.00000 0 23712150.774 -8822967.881 -3415320.762 10 0 59914 32400.00000 0 23061953.783 -8744231.257 -6579122.613 10 0 59914 33300.00000 0 22089380.122 -8426735.789 -9615382.986 10 0 59914 34200.00000 0 20842599.286 -7836002.464 -12465167.633 10 0 59914 35100.00000 0 19377743.439 -6948541.102 -15073106.542 10 0 59914 36000.00000 0 17756541.864 -5753105.497 -17388471.147 10 0 59914 36900.00000 0 16043737.097 -4251438.941 -19366165.020 10 0 59914 37800.00000 0 14304390.512 -2458476.398 -20967608.516 10 0 59914 38700.00000 0 12601189.945 -401992.138 -22161499.709 10 0 59914 39600.00000 0 10991872.186 1878295.072 -22924436.145 10 0 59914 40500.00000 0 9526868.616 4332124.411 -23241384.575 10 0 59914 41400.00000 0 8247273.081 6900546.820 -23105988.623 10 0 59914 42300.00000 0 7183217.894 9518154.579 -22520707.351 10 0 59914 43200.00000 0 6352726.747 12115594.983 -21496780.956 10 0 59914 44100.00000 0 5761093.331 14622263.986 -20054023.170 10 0 59914 45000.00000 0 5400812.274 16969067.450 -18220443.425 10 0 59914 45900.00000 0 5252065.516 19091134.405 -16031705.345 10 0 59914 46800.00000 0 5283743.416 20930368.162 -13530431.575 10 0 59914 47700.00000 0 5454956.977 22437727.526 -10765368.415 10 0 59914 48600.00000 0 5716976.235 23575141.658 -7790426.841 10 0 59914 49500.00000 0 6015511.372 24316977.499 -4663619.300 10 0 59914 50400.00000 0 6293238.243 24650997.761 -1445914.267 10 0 59914 51300.00000 0 6492459.335 24578769.365 1799967.674 10 0 59914 52200.00000 0 6557785.430 24115505.896 5010791.155 10 0 59914 53100.00000 0 6438722.498 23289351.951 8124050.849 10 0 59914 54000.00000 0 6092052.705 22140141.219 11079198.148 10 0 59914 54900.00000 0 5483907.669 20717682.559 13818824.628 10 0 59914 55800.00000 0 4591445.715 19079648.182 16289778.515 10 0 59914 56700.00000 0 3404062.179 17289154.520 18444192.350 10 0 59914 57600.00000 0 1924081.990 15412138.755 20240402.304 10 0 59914 58500.00000 0 166905.971 13514641.858 21643742.218 10 0 59914 59400.00000 0 -1839394.706 11660112.018 22627198.381 10 0 59914 60300.00000 0 -4055018.428 9906840.617 23171914.031 10 0 59914 61200.00000 0 -6429867.795 8305636.625 23267535.570 10 0 59914 62100.00000 0 -8905419.284 6897834.618 22912395.548 10 0 59914 63000.00000 0 -11416950.602 5713717.316 22113530.339 10 0 59914 63900.00000 0 -13896033.919 4771416.089 20886533.332 10 0 59914 64800.00000 0 -16273192.744 4076333.008 19255247.171 10 0 59914 65700.00000 0 -18480613.653 3621106.481 17251301.164 10 0 59914 66600.00000 0 -20454801.872 3386120.347 14913502.634 10 0 59914 67500.00000 0 -22139072.088 3340533.971 12287093.284 10 0 59914 68400.00000 0 -23485772.476 3443789.597 9422884.000 10 0 59914 69300.00000 0 -24458150.526 3647533.670 6376283.745 10 0 59914 70200.00000 0 -25031783.832 3897871.665 3206240.085 10 0 59914 71100.00000 0 -25195516.575 4137862.121 -25889.358 10 0 59914 72000.00000 0 -24951862.501 4310145.457 -3257513.657 10 0 59914 72900.00000 0 -24316857.153 4359597.265 -6426011.640 10 0 59914 73800.00000 0 -23319364.729 4235894.390 -9469938.672 10 0 59914 74700.00000 0 -21999867.546 3895885.431 -12330214.055 10 0 59914 75600.00000 0 -20408787.650 3305664.990 -14951266.337 10 0 59914 76500.00000 0 -18604409.671 2442263.058 -17282114.307 10 0 59914 77400.00000 0 -16650490.848 1294876.692 -19277362.466 10 0 59914 78300.00000 0 -14613657.373 -134409.987 -20898091.369 10 0 59914 79200.00000 0 -12560695.361 -1830450.251 -22112625.089 10 0 59914 80100.00000 0 -10555849.481 -3765413.648 -22897160.158 10 0 59914 81000.00000 0 -8658242.178 -5899706.143 -23236243.093 10 0 59914 81900.00000 0 -6919521.598 -8183395.499 -23123086.235 10 0 59914 82800.00000 0 -5381837.133 -10558084.378 -22559714.759 10 0 59914 83700.00000 0 -4076227.776 -12959154.534 -21556940.910 10 0 59914 84600.00000 0 -3021491.340 -15318289.407 -20134164.862 10 0 59914 85500.00000 0 -2223582.408 -17566170.063 -18319005.111 10 0 59915 0.00000 0 -1675564.459 -19635231.492 -16146764.979 10 0 59915 900.00000 0 -1358117.762 -21462364.344 -13659743.870 10 0 59915 1800.00000 0 -1240581.768 -22991445.248 -10906409.595 10 0 59915 2700.00000 0 -1282485.989 -24175592.174 -7940444.229 10 0 59915 3600.00000 0 -1435504.013 -24979046.333 -4819685.704 10 0 59915 4500.00000 0 -1645745.869 -25378601.840 -1604985.811 10 0 59915 5400.00000 0 -1856289.683 -25364522.505 1640991.470 10 0 59915 6300.00000 0 -2009843.197 -24940907.318 4855006.306 10 0 59915 7200.00000 0 -2051420.382 -24125489.991 7974488.150 10 0 59915 8100.00000 0 -1930917.916 -22948882.272 10938763.939 10 0 59915 9000.00000 0 -1605481.082 -21453294.463 13690244.308 10 0 59915 9900.00000 0 -1041558.124 -19690788.817 16175543.877 10 0 59915 10800.00000 0 -216555.905 -17721140.929 18346513.754 10 0 59915 11700.00000 0 879972.881 -15609400.326 20161166.559 10 0 59915 12600.00000 0 2245660.430 -13423253.519 21584476.911 10 0 59915 13500.00000 0 3865199.989 -11230300.179 22589043.258 10 0 59915 14400.00000 0 5710771.981 -9095355.897 23155599.897 10 0 59915 15300.00000 0 7743001.722 -7077893.069 23273371.018 10 0 59915 16200.00000 0 9912408.525 -5229724.916 22940261.701 10 0 59915 17100.00000 0 12161285.956 -3593026.931 22162883.651 10 0 59915 18000.00000 0 14425935.478 -2198775.838 20956416.356 10 0 59915 18900.00000 0 16639161.541 -1065668.528 19344307.077 10 0 59915 19800.00000 0 18732925.702 -199563.694 17357815.674 10 0 59915 20700.00000 0 20641050.817 406532.517 15035412.890 10 0 59915 21600.00000 0 22301864.448 771937.859 12422043.103 10 0 59915 22500.00000 0 23660672.887 927245.506 9568264.792 10 0 59915 23400.00000 0 24671963.941 912800.166 6529284.309 10 0 59915 24300.00000 0 25301247.499 776762.839 3363900.383 10 0 59915 25200.00000 0 25526457.514 572845.265 133378.577 10 0 59915 26100.00000 0 25338856.736 357808.909 -3099723.517 10 0 59915 27000.00000 0 24743405.946 188833.360 -6272758.502 10 0 59915 27900.00000 0 23758581.306 120864.712 -9324196.254 10 0 59915 28800.00000 0 22415646.327 204055.699 -12194812.797 10 0 59915 29700.00000 0 20757407.515 481405.866 -14828838.214 10 0 59915 30600.00000 0 18836504.305 986702.143 -17175041.353 10 0 59915 31500.00000 0 16713303.481 1742847.873 -19187730.056 10 0 59915 32400.00000 0 14453484.845 2760652.482 -20827647.189 10 0 59915 33300.00000 0 12125418.067 4038134.893 -22062744.612 10 0 59915 34200.00000 0 9797439.650 5560372.382 -22868819.342 10 0 59915 35100.00000 0 7535143.360 7299903.806 -23229998.822 10 0 59915 36000.00000 0 5398797.179 9217672.818 -23139064.922 10 0 59915 36900.00000 0 3440994.927 11264473.785 -22597609.361 10 0 59915 37800.00000 0 1704640.997 13382841.725 -21616016.441 10 0 59915 38700.00000 0 221352.897 15509308.537 -20213272.353 10 0 59915 39600.00000 0 -989651.129 17576931.711 -18416603.763 10 0 59915 40500.00000 0 -1922132.575 19517989.774 -16260951.936 10 0 59915 41400.00000 0 -2582857.050 21266731.068 -13788292.037 10 0 59915 42300.00000 0 -2991061.936 22762059.615 -11046810.812 10 0 59915 43200.00000 0 -3177390.769 23950044.177 -8089958.861 10 0 59915 44100.00000 0 -3182340.659 24786143.791 -4975396.683 10 0 59915 45000.00000 0 -3054290.148 25237055.018 -1763856.225 10 0 59915 45900.00000 0 -2847193.019 25282102.386 1482058.468 10 0 59915 46800.00000 0 -2618037.947 24914113.119 4699106.516 10 0 59915 47700.00000 0 -2424183.794 24139739.491 7824655.523 10 0 59915 48600.00000 0 -2320685.446 22979216.047 10797911.242 10 0 59915 49500.00000 0 -2357725.059 21465563.036 13561106.429 10 0 59915 50400.00000 0 -2578258.549 19643271.142 16060624.927 10 0 59915 51300.00000 0 -3015977.391 17566524.298 18248038.958 10 0 59915 52200.00000 0 -3693671.837 15297036.600 20081039.828 10 0 59915 53100.00000 0 -4622064.097 12901595.048 21524244.860 10 0 59915 54000.00000 0 -5799159.899 10449411.404 22549866.249 10 0 59915 54900.00000 0 -7210144.814 8009393.617 23138230.579 10 0 59915 55800.00000 0 -8827828.909 5647449.865 23278140.670 10 0 59915 56700.00000 0 -10613620.576 3423936.005 22967074.544 10 0 59915 57600.00000 0 -12518988.678 1391350.672 22211219.176 10 0 59915 58500.00000 0 -14487352.187 -407628.420 21025339.596 10 0 59915 59400.00000 0 -16456319.196 -1941687.836 19432486.593 10 0 59915 60300.00000 0 -18360183.097 -3191939.755 17463548.965 10 0 59915 61200.00000 0 -20132573.145 -4152459.316 15156658.781 10 0 59915 62100.00000 0 -21709150.468 -4830277.480 12556460.535 10 0 59915 63000.00000 0 -23030238.541 -5244831.208 9713257.378 10 0 59915 63900.00000 0 -24043279.584 -5426894.767 6682049.854 10 0 59915 64800.00000 0 -24705015.293 -5417037.446 3521484.476 10 0 59915 65700.00000 0 -24983301.272 -5263672.370 292731.274 10 0 59915 66600.00000 0 -24858479.301 -5020778.119 -2941688.978 10 0 59915 67500.00000 0 -24324249.564 -4745388.599 -6119106.099 10 0 59915 68400.00000 0 -23388005.394 -4494956.476 -9177907.812 10 0 59915 69300.00000 0 -22070615.223 -4324701.042 -12058730.045 10 0 59915 70200.00000 0 -20405659.298 -4285052.406 -14705607.378 10 0 59915 71100.00000 0 -18438151.354 -4419300.208 -17067061.402 10 0 59915 72000.00000 0 -16222797.041 -4761546.876 -19097105.600 10 0 59915 72900.00000 0 -13821860.281 -5335053.016 -20756146.987 10 0 59915 73800.00000 0 -11302725.246 -6151046.387 -22011766.518 10 0 59915 74700.00000 0 -8735254.728 -7208046.647 -22839362.413 10 0 59915 75600.00000 0 -6189054.322 -8491736.585 -23222643.162 10 0 59915 76500.00000 0 -3730756.150 -9975387.625 -23153959.732 10 0 59915 77400.00000 0 -1421435.385 -11620823.963 -22634469.432 10 0 59915 78300.00000 0 685732.454 -13379886.861 -21674127.243 10 0 59915 79200.00000 0 2547475.318 -15196339.209 -20291503.621 10 0 59915 80100.00000 0 4132005.378 -17008131.398 -18513431.375 10 0 59915 81000.00000 0 5420110.326 -18749933.815 -16374487.649 10 0 59915 81900.00000 0 6405709.482 -20355829.411 -13916320.542 10 0 59915 82800.00000 0 7095851.635 -21762052.395 -11186833.340 10 0 59915 83700.00000 0 7510155.488 -22909656.814 -8239242.501 10 0 59915 84600.00000 0 7679717.551 -23747001.328 -5131028.383 10 0 59915 85500.00000 0 7645535.156 -24231944.141 -1922800.368 10 0 59916 0.00000 0 7456513.358 -24333654.498 1322899.826 10 0 59916 900.00000 0 7167142.149 -24033963.541 4542833.453 10 0 59916 1800.00000 0 6834944.891 -23328197.251 7674308.468 10 0 59916 2700.00000 0 6517807.891 -22225456.797 10656411.778 10 0 59916 3600.00000 0 6271306.236 -20748335.005 13431200.423 10 0 59916 4500.00000 0 6146140.372 -18932082.125 15944829.409 10 0 59916 5400.00000 0 6185792.628 -16823257.286 18148593.762 10 0 59916 6300.00000 0 6424502.905 -14477923.475 19999864.903 10 0 59916 7200.00000 0 6885648.540 -11959462.837 21462903.981 10 0 59916 8100.00000 0 7580595.844 -9336104.273 22509537.768 10 0 59916 9000.00000 0 8508070.609 -6678266.600 23119685.663 10 0 59916 9900.00000 0 9654072.915 -4055827.568 23281729.356 10 0 59916 10800.00000 0 10992338.906 -1535431.125 22992719.787 10 0 59916 11700.00000 0 12485329.606 822056.851 22258418.949 10 0 59916 12600.00000 0 14085705.165 2963840.791 21093176.929 10 0 59916 13500.00000 0 15738223.235 4847142.887 19519647.379 10 0 59916 14400.00000 0 17381982.896 6440727.405 17568347.156 10 0 59916 15300.00000 0 18952921.445 7725940.795 15277068.558 10 0 59916 16200.00000 0 20386461.125 8697226.454 12690154.873 10 0 59916 17100.00000 0 21620196.581 9362094.418 9857652.332 10 0 59916 18000.00000 0 22596511.958 9740548.381 6834353.791 10 0 59916 18900.00000 0 23265019.238 9863994.788 3678751.381 10 0 59916 19800.00000 0 23584716.389 9773679.953 451917.158 10 0 59916 20700.00000 0 23525775.107 9518720.641 -2783667.590 10 0 59916 21600.00000 0 23070882.912 9153810.580 -5965312.698 10 0 59916 22500.00000 0 22216082.480 8736698.928 -9031326.608 10 0 59916 23400.00000 0 20971071.721 8325546.489 -11922207.970 10 0 59916 24300.00000 0 19358950.344 7976270.884 -14581798.564 10 0 59916 25200.00000 0 17415421.575 7739992.687 -16958375.231 10 0 59916 26100.00000 0 15187480.441 7660690.626 -19005659.389 10 0 59916 27000.00000 0 12731641.453 7773165.576 -20683724.268 10 0 59916 27900.00000 0 10111777.899 8101400.417 -21959781.755 10 0 59916 28800.00000 0 7396661.461 8657386.474 -22808832.878 10 0 59916 29700.00000 0 4657303.566 9440467.849 -23214168.540 10 0 59916 30600.00000 0 1964208.527 10437233.316 -23167709.869 10 0 59916 31500.00000 0 -615347.356 11621962.371 -22670180.495 10 0 59916 32400.00000 0 -3019897.404 12957608.602 -21731106.395 10 0 59916 33300.00000 0 -5196118.992 14397280.617 -20368642.171 10 0 59916 34200.00000 0 -7100822.962 15886159.397 -18609226.175 10 0 59916 35100.00000 0 -8702514.558 17363772.014 -16487070.361 10 0 59916 36000.00000 0 -9982460.381 18766526.077 -14043494.233 10 0 59916 36900.00000 0 -10935216.662 20030397.586 -11326115.689 10 0 59916 37800.00000 0 -11568597.201 21093657.979 -8387914.755 10 0 59916 38700.00000 0 -11903083.294 21899524.029 -5286189.064 10 0 59916 39600.00000 0 -11970701.901 22398617.323 -2081422.623 10 0 59916 40500.00000 0 -11813421.316 22551128.144 1163908.743 10 0 59916 41400.00000 0 -11481134.308 22328591.247 4386570.346 10 0 59916 42300.00000 0 -11029316.362 21715197.874 7523814.212 10 0 59916 43200.00000 0 -10516460.420 20708588.418 10514611.518 10 0 59916 44100.00000 0 -10001398.732 19320092.591 13300846.629 10 0 59916 45000.00000 0 -9540626.713 17574407.738 15828448.624 10 0 59916 45900.00000 0 -9185743.051 15508729.826 18048438.063 10 0 59916 46800.00000 0 -8981114.557 13171374.696 19917868.982 10 0 59916 47700.00000 0 -8961864.109 10619948.433 21400648.596 10 0 59916 48600.00000 0 -9152265.680 7919144.083 22468220.194 10 0 59916 49500.00000 0 -9564612.879 5138256.900 23100097.592 10 0 59916 50400.00000 0 -10198607.188 2348521.443 23284242.577 10 0 59916 51300.00000 0 -11041290.266 -379619.652 23017279.833 10 0 59916 52200.00000 0 -12067522.065 -2979203.250 22304546.731 10 0 59916 53100.00000 0 -13240984.000 -5389279.937 21159978.309 10 0 59916 54000.00000 0 -14515664.919 -7557192.045 19605830.455 10 0 59916 54900.00000 0 -15837767.956 -9440503.385 17672246.959 10 0 59916 55800.00000 0 -17147959.150 -11008502.873 15396678.725 10 0 59916 56700.00000 0 -18383864.797 -12243221.807 12823165.747 10 0 59916 57600.00000 0 -19482714.232 -13139924.279 10001494.845 10 0 59916 58500.00000 0 -20384018.616 -13707051.684 6986248.353 10 0 59916 59400.00000 0 -21032174.585 -13965624.540 3835760.918 10 0 59916 60300.00000 0 -21378884.411 -13948127.158 611003.328 10 0 59916 61200.00000 0 -21385291.485 -13696921.842 -2625586.045 10 0 59916 62100.00000 0 -21023741.376 -13262258.978 -5811300.562 10 0 59916 63000.00000 0 -20279093.826 -12699966.120 -8884372.904 10 0 59916 63900.00000 0 -19149529.426 -12068912.805 -11785167.923 10 0 59916 64800.00000 0 -17646815.426 -11428357.399 -14457337.956 10 0 59916 65700.00000 0 -15796017.504 -10835287.537 -16848918.242 10 0 59916 66600.00000 0 -13634667.361 -10341866.262 -18913340.967 10 0 59916 67500.00000 0 -11211418.665 -9993091.931 -20610347.981 10 0 59916 68400.00000 0 -8584245.312 -9824771.287 -21906783.981 10 0 59916 69300.00000 0 -5818255.330 -9861892.212 -22777254.086 10 0 59916 70200.00000 0 -2983209.963 -10117466.182 -23204632.258 10 0 59916 71100.00000 0 -150850.141 -10591890.809 -23180409.809 10 0 59916 72000.00000 0 2607858.961 -11272861.057 -22704876.145 10 0 59916 72900.00000 0 5225450.810 -12135834.559 -21787127.192 10 0 59916 73800.00000 0 7640534.374 -13145032.957 -20444900.218 10 0 59916 74700.00000 0 9800117.067 -14254938.199 -18704237.281 10 0 59916 75600.00000 0 11661576.446 -15412221.455 -16598982.998 10 0 59916 76500.00000 0 13194197.839 -16558023.487 -14170125.854 10 0 59916 77400.00000 0 14380213.303 -17630489.885 -11464995.683 10 0 59916 78300.00000 0 15215298.494 -18567453.264 -8536333.183 10 0 59916 79200.00000 0 15708507.232 -19309147.873 -5441250.191 10 0 59916 80100.00000 0 15881647.551 -19800840.375 -2240102.133 10 0 59916 81000.00000 0 15768127.174 -19995264.082 1004704.000 10 0 59916 81900.00000 0 15411319.141 -19854752.301 4229941.356 10 0 59916 82800.00000 0 14862518.883 -19352979.584 7372808.796 10 0 59916 83700.00000 0 14178581.443 -18476236.684 10372164.592 10 0 59916 84600.00000 0 13419340.934 -17224185.234 13169722.964 10 0 59916 85500.00000 0 12644923.168 -15610060.706 15711189.239 10 0 59917 0.00000 0 11913066.375 -13660315.956 17947311.114 10 0 59917 900.00000 0 11276563.423 -11413720.097 19834827.037 10 0 59917 1800.00000 0 10780934.375 -8919954.139 21337291.074 10 0 59917 2700.00000 0 10462425.459 -6237759.366 22425763.646 10 0 59917 3600.00000 0 10346418.476 -3432718.692 23079353.250 10 0 59917 4500.00000 0 10446315.561 -574762.396 23285601.711 10 0 59917 5400.00000 0 10762944.541 2264498.492 23040707.097 10 0 59917 6300.00000 0 11284508.259 5014501.629 22349581.562 10 0 59917 7200.00000 0 11987078.714 7608413.939 21225744.272 10 0 59917 8100.00000 0 12835614.467 9985654.247 19691052.344 10 0 59917 9000.00000 0 13785458.351 12094155.657 17775275.325 10 0 59917 9900.00000 0 14784252.930 13892275.991 15515521.371 10 0 59917 10800.00000 0 15774194.068 15350279.229 12955525.657 10 0 59917 11700.00000 0 16694529.122 16451328.235 10144813.869 10 0 59917 12600.00000 0 17484196.073 17191948.895 7137755.890 10 0 59917 13500.00000 0 18084493.959 17581947.397 3992526.736 10 0 59917 14400.00000 0 18441673.391 17643784.680 769993.588 10 0 59917 15300.00000 0 18509338.847 17411434.346 -2467450.599 10 0 59917 16200.00000 0 18250561.896 16928771.697 -5657085.298 10 0 59917 17100.00000 0 17639616.040 16247561.018 -8737070.040 10 0 59917 18000.00000 0 16663259.259 15425125.089 -11647638.435 10 0 59917 18900.00000 0 15321508.825 14521794.293 -14332255.814 10 0 59917 19800.00000 0 13627873.840 13598242.198 -16738718.084 10 0 59917 20700.00000 0 11609033.449 12712819.510 -18820170.280 10 0 59917 21600.00000 0 9303971.721 11918998.649 -20536024.757 10 0 59917 22500.00000 0 6762602.842 11263036.944 -21852760.719 10 0 59917 23400.00000 0 4043941.822 10781957.488 -22744588.868 10 0 59917 24300.00000 0 1213894.977 10501933.698 -23193967.499 10 0 59917 25200.00000 0 -1657239.308 10437146.787 -23191959.115 10 0 59917 26100.00000 0 -4497456.450 10589165.646 -22738419.573 10 0 59917 27000.00000 0 -7235806.960 10946876.624 -21842015.030 10 0 59917 27900.00000 0 -9805118.311 11486967.421 -20520065.261 10 0 59917 28800.00000 0 -12144563.630 12174945.750 -18798215.393 10 0 59917 29700.00000 0 -14201969.634 12966650.410 -16709941.621 10 0 59917 30600.00000 0 -15935766.896 13810191.244 -14295899.898 10 0 59917 31500.00000 0 -17316500.302 14648235.690 -11603130.137 10 0 59917 32400.00000 0 -18327836.283 15420544.515 -8684131.565 10 0 59917 33300.00000 0 -18967024.706 16066648.264 -5595827.863 10 0 59917 34200.00000 0 -19244796.679 16528549.631 -2398443.363 10 0 59917 35100.00000 0 -19184703.791 16753335.751 845686.433 10 0 59917 36000.00000 0 -18821928.318 16695588.213 4073345.241 10 0 59917 36900.00000 0 -18201616.685 16319487.468 7221681.564 10 0 59917 37800.00000 0 -17376808.775 15600521.628 10229443.617 10 0 59917 38700.00000 0 -16406052.837 14526726.923 13038178.314 10 0 59917 39600.00000 0 -15350808.698 13099407.431 15593370.018 10 0 59917 40500.00000 0 -14272750.477 11333304.123 17845496.618 10 0 59917 41400.00000 0 -13231083.512 9256206.719 19750982.658 10 0 59917 42300.00000 0 -12279988.851 6908025.496 21273031.745 10 0 59917 43200.00000 0 -11466302.390 4339362.560 22382323.395 10 0 59917 44100.00000 0 -10827525.180 1609642.733 23057562.414 10 0 59917 45000.00000 0 -10390246.872 -1215117.863 23285871.926 10 0 59917 45900.00000 0 -10169046.576 -4064813.144 23063024.260 10 0 59917 46800.00000 0 -10165915.286 -6867915.302 22393506.814 10 0 59917 47700.00000 0 -10370222.288 -9554200.529 21290422.932 10 0 59917 48600.00000 0 -10759225.502 -12057421.041 19775230.579 10 0 59917 49500.00000 0 -11299103.420 -14317814.666 17877324.248 10 0 59917 50400.00000 0 -11946464.963 -16284349.992 15633468.124 10 0 59917 51300.00000 0 -12650274.059 -17916616.047 13087090.949 10 0 59917 52200.00000 0 -13354108.746 -19186279.872 10287455.295 10 0 59917 53100.00000 0 -13998660.826 -20078052.827 7288716.307 10 0 59917 54000.00000 0 -14524372.031 -20590126.519 4148886.813 10 0 59917 54900.00000 0 -14874096.834 -20734060.767 928727.598 10 0 59917 55800.00000 0 -14995680.570 -20534128.480 -2309416.775 10 0 59917 56700.00000 0 -14844344.715 -20026144.656 -5502815.053 10 0 59917 57600.00000 0 -14384778.728 -19255828.086 -8589556.889 10 0 59917 58500.00000 0 -13592849.682 -18276763.790 -11509748.018 10 0 59917 59400.00000 0 -12456856.483 -17148051.022 -14206670.135 10 0 59917 60300.00000 0 -10978274.058 -15931734.942 -16627883.115 10 0 59917 61200.00000 0 -9171954.077 -14690129.399 -18726247.945 10 0 59917 62100.00000 0 -7065771.212 -13483143.084 -20460850.279 10 0 59917 63000.00000 0 -4699727.062 -12365721.450 -21797806.195 10 0 59917 63900.00000 0 -2124546.689 -11385512.283 -22710933.830 10 0 59917 64800.00000 0 600176.049 -10580853.686 -23182277.095 10 0 59917 65700.00000 0 3408208.997 -9979169.885 -23202470.385 10 0 59917 66600.00000 0 6229196.508 -9595843.378 -22770936.150 10 0 59917 67500.00000 0 8991354.783 -9433611.919 -21895910.410 10 0 59917 68400.00000 0 11624235.908 -9482516.746 -20594294.614 10 0 59917 69300.00000 0 14061445.241 -9720405.050 -18891335.713 10 0 59917 70200.00000 0 16243198.434 -10113966.033 -16820139.824 10 0 59917 71100.00000 0 18118610.671 -10620256.938 -14421028.333 10 0 59917 72000.00000 0 19647621.632 -11188654.291 -11740748.792 10 0 59917 72900.00000 0 20802475.072 -11763147.030 -8831556.144 10 0 59917 73800.00000 0 21568690.731 -12284873.268 -5750182.754 10 0 59917 74700.00000 0 21945487.881 -12694791.736 -2556718.425 10 0 59917 75600.00000 0 21945643.520 -12936372.984 686576.425 10 0 59917 76500.00000 0 21594792.400 -12958194.584 3916499.735 10 0 59917 77400.00000 0 20930200.151 -12716328.787 7070153.203 10 0 59917 78300.00000 0 19999063.302 -12176420.290 10086178.330 10 0 59917 79200.00000 0 18856410.107 -11315365.337 12905957.738 10 0 59917 80100.00000 0 17562692.807 -10122520.861 15474757.444 10 0 59917 81000.00000 0 16181174.597 -8600392.696 17742787.507 10 0 59917 81900.00000 0 14775222.613 -6764774.288 19666160.685 10 0 59917 82800.00000 0 13405621.446 -4644330.736 21207731.176 10 0 59917 83700.00000 0 12128019.962 -2279646.236 22337798.422 10 0 59917 84600.00000 0 10990617.750 278224.756 23034663.972 10 0 59917 85500.00000 0 10032186.780 2969641.843 23285032.300 99